Погода в Фирозабаде

Индия     27°08′54″N   78°23′30″E
темп.,
°C
ветер,
м/с
пор.,
м/с
влажн.,
%
обл.,
%
осадки,
мм/ч
давл.,
гПа
погр.,
м
29 ноября, пн
пн2923:30+19в11465 0.0 101711
02:30+18всв11507 0.0 101711
05:30+17св11526 0.0 101711
08:30+19юв00475 0.0 101984
11:30+24зюз22353 0.0 1019825
14:30+26зсз3429100 0.0 10151635
17:30+22сз333786 0.0 101521
20:30+20сз223738 0.0 101616
30 ноября, вт
вт3023:30+18сз2235100 0.0 101615
02:30+17зсз223397 0.0 101515
05:30+16зсз333599 0.0 101627
08:30+18зсз2436100 0.0 1018125
11:30+24сз3425100 0.0 1017644
14:30+25сз3321100 0.0 10141144
17:30+21сз2229100 0.0 101512
20:30+19с1132100 0.0 101711
1 декабря, ср
ср123:30+18сз1133100 0.0 101711
02:30+17с1135100 0.0 101511
05:30+17ссз1135100 0.0 101611
08:30+19сз1135100 0.0 101867
11:30+22сз1130100 0.0 1018366
14:30+24ссз2327100 0.0 1015678
17:30+21сз2232100 0.0 101513
20:30+20ссз2235100 0.0 101628
2 декабря, чт
чт223:30+19ссз1137100 0.0 101611
02:30+18сз3339100 0.0 101652
05:30+17сз343979 0.0 101657
08:30+19сз123899 0.0 1018118
11:30+23сз2229100 0.0 1017519
14:30+23сз2328100 0.0 1015676
17:30+20сз2234100 0.0 101543
20:30+20зсз2335100 0.0 101670
3 декабря, пт
пт323:30+19з223673 0.0 101622
02:30+19зсз3436100 0.0 101572
05:30+19ссз233376 0.0 101558
08:30+20зсз233494 0.0 1018140
11:30+24сз22245 0.0 1017602
14:30+26сз22217 0.0 10141233
17:30+23сз22272 0.0 101411
20:30+21св11292 0.0 101611